Weather History for Ottumwa, IA

Change the Weather History Date:

Saturday, March 23, 2013

  Actual Average Record
Temperature  
Mean Temperature 37 °F 42 °F  
Max Temperature 45 °F 53 °F 90 °F (1910)
Min Temperature 29 °F 31 °F 9 °F (1965)
Degree Days  
Heating Degree Days 28 23  
Month to date heating degree days 796 640  
Since 1 July heating degree days 5323 5525  
Cooling Degree Days 0 0  
Month to date cooling degree days 0 0  
Year to date cooling degree days 0 0  
Moisture  
Dew Point 24 °F    
Average Humidity 61    
Maximum Humidity 82    
Minimum Humidity 40    
Precipitation  
Precipitation T in 0.07 in 1.08 in (1946)
Month to date precipitation 1.97 1.60  
Year to date precipitation 5.30 3.78  
Sea Level Pressure  
Sea Level Pressure 30.06 in    
Wind  
Wind Speed 9 mph (NNE)    
Max Wind Speed 18 mph    
Max Gust Speed 23 mph    
Visibility 9 miles    
Events Snow    
T = Trace of Precipitation, MM = Missing Value Source: NWS Daily Summary

Daily Weather History Graph

Daily Weather History Graph

Search for Another Location

Airport:

Trip Planner

Search our weather history database for the weather conditions in past years. The results will help you decide how hot, cold, wet, or windy it might be!

Date:

Astronomy

Mar. 23, 2013 Rise Set
Actual Time 7:07 AM CDT 7:25 PM CDT
Civil Twilight 6:40 AM CDT 7:53 PM CDT
Nautical Twilight 6:07 AM CDT 8:25 PM CDT
Astronomical Twilight 5:34 AM CDT 8:58 PM CDT
Moon 3:51 PM CDT (3/23) 4:46 AM CDT (3/23)
Length of Visible Light 13h 12m
Length of Day
12h 17m
Waxing Gibbous, 85% of the Moon is Illuminated
Mar 23
Waxing Gibbous
Mar 27
Full
Apr 2
Last Quarter
Apr 10
New
Apr 18
First Quarter

Hourly Weather History & Observations

Time (CDT) Temp. Windchill Dew Point Humidity Pressure Visibility Wind Dir Wind Speed Gust Speed Precip Events Conditions
12:53 AM 32.0 °F 25.6 °F 23.0 °F 69% 30.08 in 10.0 mi North 6.9 mph - N/A   Overcast
1:53 AM 30.2 °F 24.3 °F 23.0 °F 75% 30.04 in 10.0 mi NNE 5.8 mph - N/A   Overcast
2:53 AM 30.9 °F 24.3 °F 21.9 °F 69% 30.08 in 10.0 mi NNE 6.9 mph - N/A   Overcast
3:53 AM 30.0 °F 24.1 °F 23.0 °F 75% 30.08 in 10.0 mi North 5.8 mph - N/A   Overcast
4:53 AM 30.0 °F 24.1 °F 23.0 °F 75% 30.08 in 10.0 mi NNE 5.8 mph - N/A   Overcast
5:53 AM 30.0 °F 25.2 °F 23.0 °F 75% 30.07 in 10.0 mi NNE 4.6 mph - N/A   Overcast
6:53 AM 28.9 °F 21.9 °F 23.0 °F 78% 30.09 in 10.0 mi NNE 6.9 mph - N/A   Overcast
7:53 AM 30.0 °F 23.2 °F 23.0 °F 75% 30.10 in 10.0 mi NNE 6.9 mph - N/A   Overcast
8:53 AM 32.0 °F 24.2 °F 24.1 °F 73% 30.11 in 10.0 mi NE 9.2 mph - N/A   Overcast
9:53 AM 35.1 °F 29.3 °F 23.0 °F 61% 30.11 in 10.0 mi NE 6.9 mph - N/A   Overcast
10:53 AM 36.0 °F 31.1 °F 23.0 °F 59% 30.12 in 10.0 mi NE 5.8 mph - N/A   Overcast
11:53 AM 37.9 °F 30.9 °F 21.9 °F 53% 30.12 in 10.0 mi NE 10.4 mph - N/A   Overcast
12:53 PM 41.0 °F 35.8 °F 23.0 °F 49% 30.11 in 10.0 mi ENE 8.1 mph - N/A   Clear
1:53 PM 41.0 °F 38.0 °F 21.9 °F 47% 30.09 in 10.0 mi Variable 4.6 mph - N/A   Clear
2:53 PM 42.1 °F 35.7 °F 21.9 °F 45% 30.03 in 10.0 mi East 11.5 mph - N/A   Clear
3:53 PM 44.1 °F 38.6 °F 21.9 °F 42% 30.02 in 10.0 mi NNE 10.4 mph - N/A   Scattered Clouds
4:53 PM 42.1 °F 37.1 °F 21.0 °F 43% 30.00 in 10.0 mi NE 8.1 mph 19.6 mph N/A   Mostly Cloudy
5:53 PM 41.0 °F 33.9 °F 19.9 °F 43% 29.99 in 10.0 mi NE 12.7 mph - N/A   Overcast
6:53 PM 39.0 °F 33.4 °F 21.0 °F 49% 30.01 in 10.0 mi NE 8.1 mph - N/A   Mostly Cloudy
7:53 PM 37.9 °F 32.7 °F 21.0 °F 51% 30.02 in 10.0 mi NNE 6.9 mph - N/A   Mostly Cloudy
8:53 PM 36.0 °F 29.0 °F 23.0 °F 59% 30.02 in 10.0 mi NNE 9.2 mph - N/A   Overcast
9:53 PM 36.0 °F 29.6 °F 24.1 °F 62% 30.02 in 10.0 mi NNE 8.1 mph - N/A   Overcast
10:53 PM 33.1 °F 23.4 °F 28.0 °F 82% 30.04 in 8.0 mi North 13.8 mph - 0.00 in   Overcast
11:13 PM 32.0 °F 23.0 °F 28.4 °F 87% 30.02 in 4.0 mi North 11.5 mph - 0.00 in Snow Light Snow
11:25 PM 32.0 °F 23.0 °F 28.4 °F 87% 30.02 in 2.0 mi North 11.5 mph - 0.00 in Snow Light Snow
11:38 PM 32.0 °F 23.6 °F 28.4 °F 87% 30.02 in 1.5 mi NNE 10.4 mph - 0.00 in Snow Light Snow
11:53 PM 30.9 °F 20.7 °F 28.9 °F 92% 30.04 in 1.2 mi NNE 13.8 mph - 0.00 in Snow Light Snow